Location: Caltech
(34.1382°N, 118.1253°W)
Time: 19:00:42
(UTC-08:00)

NOSS 3-2 (A) - Visible Passes

Search period start: 20 February 2018 00:00
Search period end: 02 March 2018 00:00
Orbit: 858 x 1350 km, 63.4° (Epoch: 17 February)

Date Brightness Start Highest point End Pass type
(mag) Time Alt. Az. Time Alt. Az. Time Alt. Az.
20 Feb 5.7 04:02:10 19° S 04:02:10 19° S 04:04:14 10° S visible
20 Feb 6.0 19:32:24 10° WNW 19:35:32 14° NW 19:38:50 10° N visible
21 Feb 5.6 18:45:00 10° W 18:49:32 22° NW 18:54:25 10° N visible
22 Feb 5.0 17:58:26 10° WSW 18:03:45 35° NW 18:09:34 10° NNE visible
23 Feb 6.1 19:08:53 10° NW 19:10:37 11° NNW 19:12:25 10° NNW visible
24 Feb 5.9 18:20:37 10° W 18:24:30 17° NW 18:28:39 10° N visible
